Location: Prague
(50.0830°N, 14.4670°E)
Time: 04:36:58
(UTC+02:00)

FO-29 - Pass Details

Date: 10 April 2023
Orbit: 799 x 1322 km, 98.5° (Epoch: 29 May)

Event Time Altitude Azimuth Distance (km) Brightness Sun altitude
Rises 04:40:22 0° 20° (NNE) 4,177 13.7 -15.5°
Reaches altitude 10° 04:43:47 10° 34° (NE) 3,131 13.2 -15.1°
Maximum altitude 04:49:23 24° 86° (E) 2,113 12.0 -14.3°
Drops below altitude 10° 04:54:28 10° 138° (SE) 2,827 12.1 -13.6°
Sets 04:57:22 0° 152° (SSE) 3,687 12.5 -13.2°
